Simultaneous Nadir Overpasses (SNOs) Predictions

Prediction of SNOs near US between AQUA and NPP Satellite Orbit:

Table of predicted SNOs near US for the next 10.0 days since TLE Epoch: 8/10/2013
Index Date (AQUA) Time (AQUA) AQUA Lat,Lon Date (NPP) Time (NPP) NPP Lat,Lon Distance(km) Time Diff (sec)
1 08/12/2013 06:30:36 46.49, -65.05 08/12/2013 06:30:34 46.83, -66.97 151.37 2
2 08/12/2013 08:08:31 49.94, -88.40 08/12/2013 08:11:02 50.40, -90.82 179.53 151
3 08/12/2013 09:47:24 49.94,-113.12 08/12/2013 09:52:30 50.52,-116.14 223.94 306
4 08/14/2013 19:06:41 49.98, -92.59 08/14/2013 19:01:22 49.62, -94.44 138.47 319
5 08/14/2013 20:45:34 49.97,-117.31 08/14/2013 20:42:51 49.57,-119.79 183.76 163
6 08/17/2013 10:12:20 26.96,-125.00 08/17/2013 10:05:55 26.26,-125.86 116.43 385
7 08/20/2013 07:19:02
